TimeCDT,TemperatureF,Dew PointF,Humidity,Sea Level PressureIn,VisibilityMPH,Wind Direction,Wind SpeedMPH,Gust SpeedMPH,PrecipitationIn,Events,Conditions,WindDirDegrees,DateUTC
12:15 AM,41.0,37.4,87,30.37,10.0,Calm,Calm,-,N/A,,Overcast,0,2013-10-14 05:15:00
12:35 AM,39.2,37.4,93,30.37,10.0,Calm,Calm,-,N/A,,Overcast,0,2013-10-14 05:35:00
12:52 AM,39.2,37.4,93,30.37,10.0,Calm,Calm,-,N/A,,Overcast,0,2013-10-14 05:52:00
1:15 AM,39.2,35.6,87,30.38,10.0,Calm,Calm,-,N/A,,Mostly Cloudy,0,2013-10-14 06:15:00
1:35 AM,39.2,35.6,87,30.38,10.0,Calm,Calm,-,N/A,,Mostly Cloudy,0,2013-10-14 06:35:00
1:52 AM,39.2,35.6,87,30.38,10.0,Calm,Calm,-,N/A,,Scattered Clouds,0,2013-10-14 06:52:00
2:15 AM,39.2,35.6,87,30.38,10.0,ENE,4.6,-,N/A,,Mostly Cloudy,60,2013-10-14 07:15:00
2:35 AM,41.0,35.6,81,30.37,10.0,ENE,8.1,-,N/A,,Overcast,70,2013-10-14 07:35:00
2:52 AM,41.0,35.6,81,30.37,10.0,ENE,6.9,-,N/A,,Overcast,60,2013-10-14 07:52:00
3:14 AM,42.8,35.6,76,30.36,10.0,East,4.6,-,N/A,,Overcast,80,2013-10-14 08:14:00
3:35 AM,42.8,35.6,76,30.36,10.0,East,5.8,-,N/A,,Overcast,80,2013-10-14 08:35:00
3:53 AM,42.8,35.6,76,30.36,10.0,East,3.5,-,N/A,,Overcast,90,2013-10-14 08:53:00
4:14 AM,42.8,35.6,76,30.35,10.0,East,4.6,-,N/A,,Overcast,80,2013-10-14 09:14:00
4:35 AM,41.0,35.6,81,30.34,10.0,East,4.6,-,N/A,,Overcast,80,2013-10-14 09:35:00
4:53 AM,42.8,35.6,76,30.35,10.0,East,4.6,-,N/A,,Overcast,90,2013-10-14 09:53:00
5:15 AM,42.8,35.6,76,30.34,10.0,ENE,4.6,-,N/A,,Overcast,70,2013-10-14 10:15:00
5:35 AM,42.8,35.6,76,30.33,10.0,ENE,4.6,-,N/A,,Overcast,70,2013-10-14 10:35:00
5:52 AM,42.8,35.6,76,30.33,10.0,ENE,4.6,-,N/A,,Overcast,60,2013-10-14 10:52:00
6:14 AM,42.8,35.6,76,30.32,10.0,East,5.8,-,N/A,,Overcast,80,2013-10-14 11:14:00
6:35 AM,41.0,35.6,81,30.32,10.0,East,4.6,-,N/A,,Mostly Cloudy,80,2013-10-14 11:35:00
6:53 AM,41.0,35.6,81,30.32,10.0,East,3.5,-,N/A,,Overcast,90,2013-10-14 11:53:00
7:15 AM,42.8,35.6,76,30.31,10.0,East,3.5,-,N/A,,Overcast,80,2013-10-14 12:15:00
7:35 AM,42.8,35.6,76,30.31,10.0,East,8.1,-,N/A,,Mostly Cloudy,100,2013-10-14 12:35:00
7:52 AM,42.8,35.6,76,30.30,10.0,East,6.9,-,N/A,,Overcast,100,2013-10-14 12:52:00
8:15 AM,42.8,35.6,76,30.30,10.0,ESE,6.9,-,N/A,,Mostly Cloudy,110,2013-10-14 13:15:00
8:35 AM,42.8,37.4,81,30.31,10.0,ESE,8.1,-,N/A,,Mostly Cloudy,120,2013-10-14 13:35:00
8:52 AM,42.8,35.6,76,30.31,10.0,SE,8.1,-,N/A,,Overcast,130,2013-10-14 13:52:00
9:15 AM,44.6,35.6,71,30.31,10.0,SE,9.2,-,N/A,,Overcast,130,2013-10-14 14:15:00
9:35 AM,44.6,35.6,71,30.32,10.0,SE,8.1,-,N/A,,Overcast,130,2013-10-14 14:35:00
9:53 AM,44.6,35.6,71,30.32,10.0,ESE,6.9,-,N/A,,Overcast,120,2013-10-14 14:53:00
10:53 AM,44.6,37.4,76,30.29,10.0,SE,12.7,-,N/A,Rain,Light Rain,140,2013-10-14 15:53:00
11:14 AM,42.8,37.4,81,30.28,10.0,SE,10.4,17.3,N/A,Rain,Light Rain,130,2013-10-14 16:14:00
11:35 AM,42.8,39.2,87,30.27,10.0,SE,9.2,-,0.04,Rain,Rain,140,2013-10-14 16:35:00
11:53 AM,42.8,39.2,87,30.27,10.0,ESE,9.2,-,0.07,Rain,Rain,120,2013-10-14 16:53:00
12:15 PM,42.8,39.2,87,30.26,10.0,ESE,9.2,-,0.02,Rain,Light Rain,110,2013-10-14 17:15:00
12:35 PM,42.8,39.2,87,30.25,10.0,East,9.2,-,0.06,Rain,Rain,100,2013-10-14 17:35:00
12:53 PM,42.8,39.2,87,30.24,10.0,East,9.2,-,0.08,Rain,Rain,100,2013-10-14 17:53:00
1:15 PM,42.8,39.2,87,30.23,10.0,East,10.4,-,0.02,Rain,Rain,90,2013-10-14 18:15:00
1:35 PM,42.8,39.2,87,30.21,10.0,East,8.1,-,0.04,Rain,Light Rain,80,2013-10-14 18:35:00
1:52 PM,42.8,41.0,93,30.19,10.0,East,10.4,-,0.06,Rain,Rain,80,2013-10-14 18:52:00
2:15 PM,42.8,39.2,87,30.18,10.0,East,10.4,-,N/A,Rain,Rain,80,2013-10-14 19:15:00
2:35 PM,42.8,39.2,87,30.16,10.0,East,11.5,-,0.02,Rain,Light Rain,80,2013-10-14 19:35:00
2:53 PM,42.8,39.2,87,30.16,10.0,East,8.1,-,0.02,Rain,Rain,80,2013-10-14 19:53:00
3:15 PM,42.8,41.0,93,30.17,10.0,East,9.2,-,N/A,,Mostly Cloudy,80,2013-10-14 20:15:00
3:34 PM,42.8,39.2,87,30.17,10.0,East,10.4,-,N/A,,Overcast,80,2013-10-14 20:34:00
3:53 PM,42.8,39.2,87,30.15,10.0,ENE,10.4,16.1,N/A,,Overcast,60,2013-10-14 20:53:00
4:15 PM,42.8,39.2,87,30.15,10.0,ENE,10.4,-,0.01,Rain,Light Rain,70,2013-10-14 21:15:00
4:35 PM,42.8,39.2,87,30.13,10.0,ENE,13.8,-,0.01,Rain,Light Rain,70,2013-10-14 21:35:00
4:53 PM,42.8,39.2,87,30.13,10.0,East,10.4,17.3,0.01,Rain,Light Rain,80,2013-10-14 21:53:00
5:15 PM,42.8,39.2,87,30.13,10.0,East,12.7,-,N/A,Rain,Light Rain,80,2013-10-14 22:15:00
5:35 PM,42.8,39.2,87,30.11,7.0,East,11.5,19.6,0.03,Rain,Rain,80,2013-10-14 22:35:00
5:53 PM,42.8,39.2,87,30.10,10.0,East,13.8,18.4,0.06,Rain,Rain,80,2013-10-14 22:53:00
6:15 PM,41.0,39.2,93,30.10,10.0,East,12.7,18.4,0.02,Rain,Light Rain,80,2013-10-14 23:15:00
6:35 PM,41.0,39.2,93,30.08,10.0,ENE,11.5,16.1,0.02,Rain,Light Rain,60,2013-10-14 23:35:00
6:52 PM,41.0,39.2,93,30.09,10.0,ENE,10.4,-,0.02,,Overcast,70,2013-10-14 23:52:00
7:14 PM,42.8,39.2,87,30.09,10.0,East,9.2,-,N/A,,Overcast,80,2013-10-15 00:14:00
7:34 PM,42.8,39.2,87,30.09,10.0,ENE,6.9,-,N/A,,Overcast,70,2013-10-15 00:34:00
7:52 PM,41.0,39.2,93,30.08,10.0,ENE,9.2,-,N/A,Rain,Rain,60,2013-10-15 00:52:00
8:15 PM,42.8,39.2,87,30.08,10.0,ENE,12.7,-,0.06,Rain,Rain,60,2013-10-15 01:15:00
8:35 PM,41.0,39.2,93,30.07,7.0,ENE,13.8,19.6,0.14,Rain,Rain,60,2013-10-15 01:35:00
8:53 PM,41.0,39.2,93,30.06,10.0,ENE,12.7,18.4,0.17,Rain,Rain,60,2013-10-15 01:53:00
9:14 PM,41.0,39.2,93,30.05,7.0,ENE,10.4,19.6,0.05,Rain,Heavy Rain,60,2013-10-15 02:14:00
9:34 PM,41.0,39.2,93,30.05,7.0,ENE,11.5,18.4,0.09,Rain,Rain,60,2013-10-15 02:34:00
9:53 PM,41.0,39.2,93,30.04,7.0,ENE,11.5,20.7,0.13,Rain,Rain,60,2013-10-15 02:53:00
10:15 PM,41.0,39.2,93,30.03,10.0,ENE,12.7,20.7,0.03,Rain,Rain,60,2013-10-15 03:15:00
10:35 PM,42.8,39.2,87,30.03,10.0,ENE,13.8,18.4,0.06,Rain,Rain,60,2013-10-15 03:35:00
10:53 PM,42.8,39.2,87,30.02,10.0,ENE,15.0,21.9,0.07,Rain,Light Rain,60,2013-10-15 03:53:00
11:15 PM,42.8,39.2,87,30.00,10.0,ENE,13.8,19.6,0.01,Rain,Light Rain,60,2013-10-15 04:15:00
11:35 PM,42.8,39.2,87,30.01,10.0,NE,11.5,-,0.02,Rain,Light Rain,50,2013-10-15 04:35:00
11:53 PM,42.8,39.2,87,29.99,10.0,ENE,15.0,19.6,0.03,Rain,Light Rain,60,2013-10-15 04:53:00